NIMBUS 2 DEB, 42441

Orbit data source: Space-Track

NIMBUS 2 DEB, 42441 is space debris in SSO originally from a launch on Sun, 15 May 1966 UTC launched from the Air Force Western Test Range (AFWTR). Debris objects in space refer to the collection of defunct objects orbiting the Earth. Examples of debris include non-operational satellites, rocket bodies, and fragments generated from explosions, collisions, or faulty payload assembly.

Loading next visibility...
Identifier
42441, 1966-040BU
Orbit
SSO
Country
Flag of USUS
Related business
Manufacturer
Unknown
Mission
Spacecraft
Bus & Motor
Unknown
Mass
Unknown
Launch date (UTC)
1966-05-15 (59 years ago)
Launch vehicle
Unknown
Launch site
Air Force Western Test Range (AFWTR)
Object type
Payload
Rocket body
Debris
Shape & HBR
Unknown shape, 0.1 m
Radar Cross Section
Small (<0.1 m²)

Expand to show TLE details & history
Last TLE update: 14 hours ago

TLE from 14 hours ago
0 NIMBUS 2 DEB
1 42441U 66040BU  25286.59480885  .00003036  00000-0  53059-2 0  9997
2 42441 100.4383 120.4602 0030318  93.6345 266.8252 13.44048248430563
Epoch: 2025-10-13T14:16Z
TLE epoch observation values (Epoch: 2025-10-13T14:16:31.484Z)
Latitude
0.00003°
Longitude
-116.06633°
Altitude
1,098.312 km
Speed
7.303 km/s
True Right ascension
08h 01m 50s
True Declination
0° 00' 00"
Sunlit
Object was in daylight at epoch
Visualization orbit readout
Latitude
Unknown
Longitude
Unknown
Altitude
Unknown
Speed
Unknown
Apparent Right ascension
Unknown
Apparent Declination
Unknown
Sunlit
N/A
Visualization observer readout
Local Sidereal Time
22:40:54
Azimuth
Unknown
Elevation
Unknown
Doppler factor
Unknown
Orbital elements
Apogee altitude
1,114.232 km
Perigee altitude
1,068.939 km
Semi-major axis
7,469.723 km
Eccentricity
0.00303
Inclination
100.4383°
RAAN
120.4602°
Arg. of periapsis
93.6345°
True anomaly
266.47839°
Mean anomaly
266.8252°
Eccentric anomaly
266.65179°
Mean motion
3.36191 °/min
Orbital period
107.08 mins
BSTAR
0.0053059
Loading maneuver chart data...
Computing Atmospheric mass density...
Loading historical data...
Loading historical data...
Loading historical data...
Loading historical data...
Loading historical data...
Loading historical data...
Loading historical data...

Documentation

Showing up to 5 results
|